This is the latest recevied weather packets stored in our database for station/object W4ZHA. If no packets are shown the sender has not sent any weather packets the latest 10 day(s).
| Time | Temp. | Humidity | Pressure | Rain* | Wind** | Luminosity | Snow |
|---|---|---|---|---|---|---|---|
| 1778081394 | 20° C | 98% | 1013.4 hPa | 0 mm | - | 165 W/m² | - |
| 1778081091 | 19.44° C | 99% | 1013.8 hPa | 0 mm | - | 202 W/m² | - |
| 1778080789 | 19.44° C | 99% | 1013.8 hPa | 0 mm | - | 116 W/m² | - |
| 1778080486 | 19.44° C | 99% | 1014.1 hPa | 0 mm | - | 134 W/m² | - |
| 1778080184 | 19.44° C | 99% | 1013.8 hPa | 0 mm | - | 163 W/m² | - |
| 1778079879 | 18.89° C | 99% | 1013.8 hPa | 0 mm | - | 158 W/m² | - |
| 1778079577 | 19.44° C | 99% | 1013.8 hPa | 0 mm | - | 135 W/m² | - |
| 1778079273 | 18.89° C | 99% | 1012.3 hPa | 1.78 mm | - | 86 W/m² | - |
| 1778078971 | 18.89° C | 99% | 1013.4 hPa | 1.78 mm | - | 49 W/m² | - |
| 1778078667 | 18.89° C | 99% | 1013.8 hPa | 3.56 mm | - | 41 W/m² | - |
| 1778078366 | 18.89° C | 99% | 1014.1 hPa | 3.56 mm | - | 24 W/m² | - |
| 1778078062 | 18.89° C | 99% | 1014.8 hPa | 5.33 mm | - | 25 W/m² | - |
| 1778077761 | 18.89° C | 99% | 1014.4 hPa | 5.33 mm | - | 21 W/m² | - |
| 1778077458 | 18.89° C | 98% | 1014.4 hPa | 8.89 mm | - | 18 W/m² | - |
| 1778077156 | 18.33° C | 98% | 1014.1 hPa | 26.92 mm | - | 12 W/m² | - |
| 1778076854 | 18.33° C | 98% | 1014.8 hPa | 28.7 mm | - | 11 W/m² | - |
| 1778076552 | 18.33° C | 98% | 1015.1 hPa | 19.81 mm | - | 5 W/m² | - |
| 1778076248 | 18.33° C | 98% | 1015.1 hPa | 18.03 mm | - | 3 W/m² | - |
| 1778075946 | 18.33° C | 97% | 1015.1 hPa | 8.89 mm | - | 5 W/m² | - |
| 1778075643 | 18.33° C | 97% | 1014.4 hPa | 7.11 mm | - | 4 W/m² | - |
| 1778075338 | 18.33° C | 97% | 1014.4 hPa | 5.33 mm | - | 5 W/m² | - |
| 1778075035 | 18.33° C | 96% | 1014.4 hPa | 10.92 mm | - | 6 W/m² | - |
| 1778074732 | 18.33° C | 96% | 1014.4 hPa | 8.89 mm | - | 4 W/m² | - |
| 1778074428 | 18.33° C | 94% | 1014.1 hPa | 5.33 mm | - | 3 W/m² | - |
| 1778074125 | 18.33° C | 93% | 1014.1 hPa | 7.11 mm | - | 3 W/m² | - |
* Rain latest hour (hover to see other rain measurements)
** Current wind speed in m/s (hover to see current wind gust speed)